Flag Weather past 2 weeks in Göppingen, Baden-Württemberg, Germany

Now
50 °F

Overcast.


Feels Like: 49 °F
Forecast: 44 / 64 °F
Wind: 3 mph from Southeast

Location: Stoetten

Current Time: Oct 31, 2014 at 6:27:34 PM

Latest Report: Oct 31, 2014 at 6:00 PM


Visibility: 13 mi

Pressure: 30.30 "Hg

Humidity: 91%

Dew point: 47 °F

Location of GöppingenLocation

Historic Weather in Göppingen — Graph

°F

Göppingen temperature yesterday

Maximum temperature yesterday: 51 °F (at 4:00 PM)
Minimum temperature yesterday: 45 °F (at 12:00 AM)
Average temperature yesterday: 47 °F

Past Weeks' High & Low Weather Summary

 TemperatureHumidityPressure
High69 °F (Oct 19, 2:00 PM)100% (Oct 17, 6:00 AM)30.38 "Hg (Oct 17, 6:00 AM)
Low35 °F (Oct 28, 8:00 AM)57% (Oct 19, 12:00 PM)29.62 "Hg (Oct 21, 8:00 PM)
Average47 °F91%30.16 "Hg
* Reported Oct 16 6:00 PM — Oct 31 5:00 PM, Göppingen, Weather by CustomWeather, © 2014

Note: Actual official high and low records may vary slightly from our data, if they occured in-between our weather recording intervals... More about our weather records

Advertising

Göppingen weather history for previous 24 hours

 ConditionsComfort  
Time TempWeatherWind HumidityBarometerVisibility
5:00 PM
Oct 31
52 °FOvercast.2 mph85%30.29 "Hg19 mi
4:00 PM54 °FOvercast.2 mph77%30.28 "Hg19 mi
3:00 PM56 °FOvercast.2 mph69%30.28 "Hg16 mi
2:00 PM56 °FOvercast.3 mph67%30.28 "Hg16 mi
1:00 PM55 °FOvercast.2 mph68%30.30 "Hg16 mi
12:00 PM51 °FPartly sunny.2 mph85%30.32 "Hg11 mi
11:00 AM49 °FFog.3 mph91%30.34 "Hg3 mi
10:00 AM46 °FFog.3 mph89%30.35 "Hg1 mi
9:00 AM44 °FFog.3 mph100%30.35 "Hg0 mi
8:00 AM44 °FFog.3 mph100%30.35 "Hg0 mi
7:00 AM44 °FFog.3 mph100%30.33 "Hg0 mi
6:00 AM45 °FFog.3 mph100%30.33 "Hg0 mi
5:00 AM45 °FLow clouds.3 mph100%30.33 "Hg0 mi
4:00 AM46 °FLow clouds.2 mph100%30.33 "Hg0 mi
3:00 AM47 °FLow clouds.3 mph100%30.33 "Hg0 mi
2:00 AM47 °FLow clouds.2 mph100%30.34 "Hg0 mi
1:00 AM47 °FLow clouds.2 mph100%30.34 "Hg0 mi
12:00 AM47 °FLow clouds.3 mph100%30.33 "Hg0 mi
11:00 PM
Oct 30
48 °FLow clouds.2 mph100%30.33 "Hg0 mi
10:00 PM48 °FLow clouds.3 mph100%30.33 "Hg0 mi
9:00 PM49 °FLow clouds.2 mph97%30.33 "Hg6 mi
8:00 PM49 °FLow clouds.1 mph97%30.32 "Hg12 mi
7:00 PM49 °FLow clouds.2 mph97%30.32 "Hg19 mi
6:00 PM48 °FLow clouds.1 mph95%30.32 "Hg12 mi
Weather by CustomWeather, © 2014

See weather overviewHow to use our weather pages